Regional Weather Roundup
Issued by NWS

Home | Current Version | Previous Version | Text Only | Print | Product List | Glossary Off
Versions: 1 2 3 4 5 6 7 8 9 10 11 12 13 14 15 16 17 18 19 20 21 22 23 24 25 26 27 28 29 30 31 32 33 34 35 36 37 38 39 40 41 42 43 44 45 46 47 48 49 50

000
ASUS43 KDTX 010210
RWRMI
MICHIGAN HOURLY REGIONAL WEATHER ROUNDUP
NATIONAL WEATHER SERVICE DETROIT/PONTIAC MI
1000 PM EDT SUN AUG 31 2014

NOTE: "FAIR" INDICATES FEW OR NO CLOUDS BELOW 12,000 FEET WITH NO
SIGNIFICANT WEATHER AND/OR OBSTRUCTION TO VISIBILITY.

MIZ047>049-052>055-059>063-066>070-074>076-081>083-010300-
SOUTHEAST LOWER MICHIGAN

CITY           SKY/WX    TMP DP  RH WIND       PRES   REMARKS
ADRIAN         MOCLDY    74  68  81 CALM      29.96R
ALMA           FOG       66  65  96 CALM      29.93S VSB 1/2
BAD AXE        CLOUDY    69  68  97 E5        29.95R
DETROIT CITY   PTCLDY    77  67  71 S3        29.94S
DETROIT        MOCLDY    75  68  78 SE3       29.94S
FLINT          PTCLDY    75  67  76 SW3       29.93S
GROSSE ILE     PTCLDY    73  70  88 SE5       29.93S
HILLSDALE      CLEAR     69  69 100 CALM      29.97S
HOWELL         PTCLDY    70  67  90 CALM      29.95S

CITY           SKY/WX    TMP DP  RH WIND       PRES   REMARKS
JACKSON        PTCLDY    70  67  90 CALM      29.95S
LAMBERTVILLE   CLEAR     73  68  83 CALM      29.95S
LANSING        CLOUDY    71  67  87 CALM      29.94S
LAPEER         NOT AVBL
MASON          MOCLDY    71  67  85 CALM      29.95R
MONROE         CLEAR     72  70  94 CALM      29.93S
MT. CLEMENS    CLEAR     71  67  89 S6        29.93S
PONTIAC        MOCLDY    75  67  76 S6        29.94S
PORT HOPE        N/A     68  66  93 SE5       29.93S
PORT HURON     FOG       68  68 100 CALM      29.94S VSB 3/4
TRI CITIES     PTCLDY    72  67  84 CALM      29.93R
YPSILANTI      CLOUDY    77  69  76 SE9       29.94S
$$
MIZ043>046-050>051-056>058-064>065-071>073-077>080-010300-
SOUTHWEST LOWER MICHIGAN

CITY           SKY/WX    TMP DP  RH WIND       PRES   REMARKS
BATTLE CREEK   CLEAR     71  68  90 S3        29.95S FOG
BENTON HARBOR  CLEAR     69  67  93 E3        29.90F
BIG RAPIDS     CLEAR     65  64  94 CALM      29.91F
COLDWATER      CLEAR     71  69  95 CALM      29.95S FOG
HOLLAND        PTCLDY    70  67  90 E3        29.91F
GRAND RAPIDS   PTCLDY    68  67  96 S7        29.93S
KALAMAZOO      CLEAR     71  67  87 E5        29.94S
MARSHALL       FOG       69  68  99 CALM      29.94F VSB 1
MUSKEGON       PTCLDY    70  66  87 SE6       29.89F
$$
MIZ016>042-010300-
NORTHERN LOWER MICHIGAN

CITY           SKY/WX    TMP DP  RH WIND       PRES   REMARKS
ALPENA         CLEAR     61  60  97 CALM      29.93F
BEAVER ISLAND  CLEAR     59  58  98 SE6       29.87F
BELLAIRE       CLEAR     61  60  94 CALM      29.89F
CADILLAC       CLEAR     64  63  97 CALM      29.93S
CHARLEVOIX     CLEAR     63  62  98 CALM      29.92F
FRANKFORT      CLEAR     64  60  88 CALM      29.87F
GAYLORD        CLEAR     63  60  90 CALM      29.93S
GRAYLING       CLEAR     61  61 100 CALM      29.94S FOG
HARBOR SPRINGS CLEAR     62  60  93 E5        29.89F
HOUGHTON LAKE  MOCLDY    63  62  97 CALM      29.94S
MANISTEE       CLEAR     64  61  88 E5        29.88F
OSCODA         CLEAR     64  64  99 NE5       29.93S
PELLSTON       CLEAR     58  58 100 CALM      29.90F
TRAVERSE CITY  CLEAR     64  61  90 CALM      29.87F
$$
MIZ007>008-015-010300-
EASTERN UPPER MICHIGAN

CITY           SKY/WX    TMP DP  RH WIND       PRES   REMARKS
KINROSS        CLEAR     59  59 100 SE3       29.90F
MACKINAC ISLAN CLEAR     58  58 100 SE5       29.89F FOG
NEWBERRY       CLEAR     58  57  99 SE7       29.86F
S. S. MARIE    CLEAR     62  59  90 SE3       29.90F
$$
MIZ004>006-011>014-085-010300-
CENTRAL UPPER MICHIGAN

CITY           SKY/WX    TMP DP  RH WIND       PRES   REMARKS
MANISTIQUE     PTCLDY    62  60  94 SE8       29.85F
ESCANABA       CLOUDY    64  59  82 SE12      29.83F
MENOMINEE      CLOUDY    64  63  94 S13       29.82F
SAWYER-GWINN   CLOUDY    63  59  88 S15       29.81F
$$
MIZ001>003-009>011-084-010300-
WESTERN UPPER MICHIGAN

CITY           SKY/WX    TMP DP  RH WIND       PRES   REMARKS
IRON MOUNTAIN  CLOUDY    64  61  90 S10       29.81S
HOUGHTON       CLEAR     63  58  83 E9        29.73S
COPPER HARBOR    N/A     62  58  86 SW13G23   29.72F
$$

ABBREVIATIONS USED IN REMARKS
   TC - TEMPERATURE IN CELSIUS
  WCI - WIND CHILL INDEX
   HX - HEAT INDEX
  VSB - VISIBILITY



USA.gov is the U.S. government's official web portal to all federal, state and local government web resources and services.